DW4070 Weather Reports


Display with metric or nautical units.
time (UTC)temp
F
wind
direction
speed
MPH
gust
MPH
rain 1hr
in
rain 24hr
in
rain mn
in
humidity
%
barometer
mb
20260904010025 73 282 0.0 0.0 0.00 0.14 0.14 94 1013.5
20260904004525 73 282 0.0 0.0 0.00 0.14 0.14 94 1013.4
20260904003025 73 282 0.0 0.0 0.00 0.14 0.14 93 1013.3
20260904001523 74 282 0.0 0.0 0.00 0.14 0.14 93 1013.3
20260904000023 74 282 0.0 0.0 0.00 0.14 0.14 93 1013.1
20260903234522 75 282 0.0 0.0 0.00 0.14 0.14 92 1012.8
20260903233022 75 282 0.0 0.0 0.00 0.14 0.14 91 1012.6
20260903231520 76 282 0.0 0.0 0.00 0.14 0.14 90 1012.8
20260903230019 77 282 0.0 0.0 0.00 0.14 0.14 90 1012.8
20260903224529 78 282 0.0 0.0 0.00 0.14 0.14 89 1012.8
20260903223018 78 282 0.0 0.0 0.00 0.14 0.14 89 1013.1
20260903221518 78 282 0.0 0.0 0.00 0.14 0.14 91 1013.1
20260903220028 78 282 0.0 0.0 0.00 0.14 0.14 90 1013.0
20260903214516 78 282 0.0 0.0 0.00 0.14 0.14 88 1013.0
20260903213022 79 282 0.0 0.0 0.00 0.14 0.14 88 1012.9
20260903211514 79 282 0.0 0.0 0.00 0.14 0.14 87 1012.9
20260903210013 80 282 0.0 0.0 0.00 0.14 0.14 87 1012.9
20260903204515 80 282 0.0 0.0 0.00 0.16 0.14 85 1012.9
20260903203011 80 282 0.0 0.0 0.00 0.16 0.14 88 1013.0
20260903201517 80 282 0.0 0.0 0.00 0.16 0.14 86 1013.1
20260903200008 80 282 0.0 0.0 0.00 0.16 0.14 86 1013.2
20260903194507 80 282 0.0 0.0 0.00 0.63 0.14 83 1013.2
20260903193008 81 282 0.0 0.0 0.00 0.63 0.14 80 1013.3
20260903191507 82 282 0.0 2.0 0.00 0.63 0.14 78 1013.4
20260903190004 83 282 0.0 2.0 0.00 0.63 0.14 79 1013.6
20260903184601 83 282 0.0 2.0 0.00 1.02 0.14 80 1013.9
20260903183059 83 283 0.0 3.0 0.00 1.02 0.14 80 1013.8
20260903183002 83 282 0.0 2.0 0.00 1.02 0.14 80 1013.8
20260903181557 82 282 0.0 2.0 0.00 1.02 0.14 80 1014.0
20260903180054 82 282 0.0 3.0 0.00 1.02 0.14 82 1014.0
20260903174550 80 282 0.0 3.0 0.00 1.02 0.14 81 1014.2
20260903173050 80 282 0.0 2.0 0.00 1.02 0.14 79 1014.5
20260903171546 79 282 1.0 4.0 0.00 1.02 0.14 81 1014.6
20260903170045 79 282 1.0 5.0 0.00 1.02 0.14 81 1014.6
20260903164542 78 282 1.0 4.0 0.00 1.02 0.14 83 1014.6
20260903163040 78 282 0.0 2.0 0.00 1.02 0.14 85 1014.9
20260903161541 79 282 1.0 4.0 0.00 1.02 0.14 81 1015.0
20260903160037 78 282 1.0 6.0 0.00 1.02 0.14 84 1015.2
20260903154533 77 282 0.0 4.0 0.00 1.02 0.14 85 1015.2
20260903153029 75 282 0.0 5.0 0.00 1.02 0.14 90 1015.4
20260903151530 74 285 0.0 3.0 0.00 1.02 0.14 91 1015.5
20260903150038 73 284 1.0 4.0 0.00 1.02 0.14 91 1015.4
20260903144519 72 284 1.0 4.0 0.00 1.02 0.14 94 1015.8
20260903143034 72 284 0.0 3.0 0.00 1.02 0.14 96 1015.7
20260903141519 71 284 0.0 2.0 0.00 1.02 0.14 97 1015.6
20260903140013 70 284 2.0 3.0 0.00 1.02 0.14 97 1015.7
20260903134529 70 285 0.0 2.0 0.00 1.02 0.14 97 1015.8
20260903133011 70 286 0.0 0.0 0.00 1.02 0.14 97 1015.8
20260903131509 69 286 0.0 0.0 0.00 1.02 0.14 97 1015.7
20260903130007 69 286 0.0 0.0 0.00 1.02 0.14 97 1016.2
20260903124505 68 286 0.0 0.0 0.00 1.02 0.14 97 1016.3
20260903123008 68 286 0.0 0.0 0.00 1.02 0.14 97 1016.3
20260903121502 68 320 0.0 0.0 0.00 1.02 0.14 97 1016.5
20260903120002 68 320 0.0 0.0 0.00 1.02 0.14 97 1016.6
20260903114603 67 320 0.0 0.0 0.00 1.02 0.14 97 1016.7
20260903113059 67 320 0.0 1.0 0.00 1.02 0.14 97 1016.6
20260903111559 67 284 0.0 0.0 0.00 1.02 0.14 97 1016.5
20260903110059 67 98 0.0 0.0 0.00 1.02 0.14 97 1016.5
20260903104605 67 98 0.0 0.0 0.00 1.02 0.14 97 1016.6
20260903103057 67 286 0.0 0.0 0.00 1.02 0.14 97 1016.6
20260903101557 67 286 0.0 0.0 0.00 1.02 0.14 97 1016.3
20260903100056 67 286 0.0 0.0 0.00 1.02 0.14 97 1016.3
20260903094607 67 286 0.0 0.0 0.00 1.02 0.14 97 1016.3
20260903093102 67 286 0.0 0.0 0.00 1.02 0.14 97 1016.2
20260903091553 67 286 0.0 0.0 0.00 1.02 0.14 97 1016.1
20260903090053 67 286 0.0 2.0 0.00 1.02 0.14 97 1016.0
20260903084551 67 286 0.0 0.0 0.00 1.02 0.14 97 1015.9
20260903083048 67 286 0.0 0.0 0.01 1.02 0.14 97 1016.4
20260903081550 67 286 0.0 0.0 0.02 1.02 0.14 97 1016.9
20260903080046 67 286 0.0 0.0 0.02 1.02 0.14 97 1016.7
20260903074546 67 286 0.0 0.0 0.02 1.02 0.14 97 1016.8
20260903073057 67 286 0.0 1.0 0.01 1.01 0.13 97 1017.0
20260903071544 67 286 0.0 0.0 0.00 1.00 0.12 97 1017.1
20260903070042 67 286 0.0 0.0 0.01 1.00 0.12 97 1017.4
20260903064541 67 286 0.0 0.0 0.01 1.00 0.12 97 1017.2
20260903063040 67 286 0.0 0.0 0.04 1.00 0.12 97 1017.1
20260903061539 67 286 0.0 0.0 0.08 0.99 0.11 97 1017.7
20260903060039 67 286 0.0 0.0 0.10 0.99 0.11 97 1017.9
20260903054537 66 286 0.0 0.0 0.11 0.99 0.11 96 1017.4
20260903053037 66 286 0.0 0.0 0.08 0.96 0.08 96 1018.4
20260903051530 66 286 0.0 0.0 0.03 0.91 0.03 97 1019.6
20260903050027 66 286 0.0 0.0 0.01 0.89 0.01 96 1019.5
20260903044527 66 286 0.0 0.0 0.00 0.88 0.00 96 1019.4
20260903043027 66 286 0.0 0.0 0.00 0.88 0.00 96 1019.3
20260903041525 66 286 0.0 0.0 0.00 0.88 0.00 96 1019.3
20260903040022 66 286 0.0 0.0 0.00 0.88 0.00 96 1019.6
20260903034521 66 286 0.0 0.0 0.00 0.88 0.88 96 1019.7
20260903033022 66 286 0.0 0.0 0.00 0.88 0.88 96 1019.2
20260903031529 66 286 0.0 0.0 0.00 0.88 0.88 96 1019.4
20260903030017 66 286 0.0 0.0 0.00 0.88 0.88 96 1019.7
20260903024517 66 286 0.0 0.0 0.00 0.88 0.88 96 1020.0
20260903023024 66 286 0.0 0.0 0.00 0.88 0.88 96 1020.0
20260903021535 65 286 0.0 0.0 0.00 0.88 0.88 96 1020.1
20260903020018 65 286 0.0 0.0 0.00 0.88 0.88 96 1020.1
20260903014514 65 286 0.0 0.0 0.00 0.88 0.88 96 1020.1
20260903013015 65 286 0.0 0.0 0.00 0.88 0.88 96 1020.4
20260903011514 65 286 0.0 0.0 0.00 0.88 0.88 96 1020.5